TimeEDT,TemperatureF,Dew PointF,Humidity,Sea Level PressureIn,VisibilityMPH,Wind Direction,Wind SpeedMPH,Gust SpeedMPH,PrecipitationIn,Events,Conditions,WindDirDegrees,DateUTC
2:55 AM,39.2,39.2,100,29.81,0.8,Calm,Calm,-,N/A,,Mist,0,2012-10-19 06:55:00
3:15 AM,41.0,41.0,100,29.81,10.0,Calm,Calm,-,N/A,,Unknown,0,2012-10-19 07:15:00
3:35 AM,39.2,39.2,100,29.80,0.5,Calm,Calm,-,N/A,Fog,Fog,0,2012-10-19 07:35:00
3:55 AM,39.2,39.2,100,29.80,0.2,Calm,Calm,-,N/A,Fog,Fog,0,2012-10-19 07:55:00
4:15 AM,39.2,39.2,100,29.80,0.5,Calm,Calm,-,N/A,Fog,Fog,0,2012-10-19 08:15:00
4:35 AM,39.2,39.2,100,29.79,0.2,Calm,Calm,-,N/A,Fog,Fog,0,2012-10-19 08:35:00
4:55 AM,39.2,39.2,100,29.80,0.2,Calm,Calm,-,N/A,Fog,Fog,0,2012-10-19 08:55:00
5:15 AM,39.2,39.2,100,29.79,0.2,Calm,Calm,-,N/A,Fog,Fog,0,2012-10-19 09:15:00
5:35 AM,37.4,37.4,100,29.79,0.2,Calm,Calm,-,N/A,Fog,Fog,0,2012-10-19 09:35:00
5:55 AM,37.4,37.4,100,29.79,0.2,Calm,Calm,-,N/A,Fog,Fog,0,2012-10-19 09:55:00
6:15 AM,37.4,37.4,100,29.80,0.2,Calm,Calm,-,N/A,Fog,Fog,0,2012-10-19 10:15:00
6:35 AM,37.4,37.4,100,29.80,0.2,Calm,Calm,-,N/A,Fog,Fog,0,2012-10-19 10:35:00
6:55 AM,37.4,37.4,100,29.80,0.2,Calm,Calm,-,N/A,Fog,Fog,0,2012-10-19 10:55:00
7:15 AM,35.6,35.6,100,29.80,0.5,Calm,Calm,-,N/A,Fog,Fog,0,2012-10-19 11:15:00
7:35 AM,35.6,35.6,100,29.80,0.8,Calm,Calm,-,N/A,,Mist,0,2012-10-19 11:35:00
7:55 AM,35.6,35.6,100,29.80,0.2,Calm,Calm,-,N/A,Fog,Fog,0,2012-10-19 11:55:00
8:15 AM,35.6,35.6,100,29.80,0.2,Calm,Calm,-,N/A,Fog,Fog,0,2012-10-19 12:15:00
8:55 AM,37.4,37.4,100,29.80,0.5,Calm,Calm,-,N/A,Fog,Fog,0,2012-10-19 12:55:00
9:15 AM,39.2,39.2,100,29.80,0.5,Calm,Calm,-,N/A,Fog,Fog,0,2012-10-19 13:15:00
9:35 AM,39.2,39.2,100,29.80,4.0,Calm,Calm,-,N/A,,Clear,0,2012-10-19 13:35:00
9:55 AM,42.8,42.8,100,29.80,10.0,Calm,Calm,-,N/A,,Clear,0,2012-10-19 13:55:00
10:15 AM,46.4,46.4,100,29.79,10.0,Calm,Calm,-,N/A,,Clear,0,2012-10-19 14:15:00
10:35 AM,48.2,48.2,100,29.78,10.0,Calm,Calm,-,N/A,,Clear,0,2012-10-19 14:35:00
10:55 AM,50.0,50.0,100,29.78,10.0,Calm,Calm,-,N/A,,Clear,0,2012-10-19 14:55:00
11:15 AM,53.6,39.2,58,29.77,10.0,Calm,Calm,-,N/A,,Clear,0,2012-10-19 15:15:00
11:35 AM,55.4,39.2,54,29.77,10.0,SW,4.6,-,N/A,,Clear,230,2012-10-19 15:35:00
11:55 AM,57.2,37.4,48,29.77,10.0,SW,5.8,-,N/A,,Clear,220,2012-10-19 15:55:00
12:15 PM,59.0,37.4,45,29.76,10.0,WSW,6.9,-,N/A,,Clear,240,2012-10-19 16:15:00
12:35 PM,62.6,35.6,37,29.76,10.0,WSW,10.4,-,N/A,,Clear,240,2012-10-19 16:35:00
12:55 PM,62.6,30.2,30,29.75,8.0,SW,16.1,25.3,N/A,,Clear,230,2012-10-19 16:55:00
1:15 PM,62.6,28.4,27,29.75,8.0,SW,18.4,31.1,N/A,,Clear,220,2012-10-19 17:15:00
1:35 PM,64.4,32.0,30,29.74,9.0,SW,16.1,-,N/A,,Clear,230,2012-10-19 17:35:00
1:55 PM,64.4,32.0,30,29.73,10.0,SW,18.4,25.3,N/A,,Clear,230,2012-10-19 17:55:00
2:15 PM,64.4,32.0,30,29.72,10.0,SW,12.7,21.9,N/A,,Clear,230,2012-10-19 18:15:00
2:35 PM,64.4,32.0,30,29.72,10.0,SW,18.4,24.2,N/A,,Clear,220,2012-10-19 18:35:00
2:55 PM,64.4,33.8,32,29.71,10.0,West,15.0,26.5,N/A,,Clear,260,2012-10-19 18:55:00
3:15 PM,64.4,33.8,32,29.71,10.0,SW,12.7,21.9,N/A,,Clear,230,2012-10-19 19:15:00
3:35 PM,64.4,33.8,32,29.70,10.0,SSW,17.3,24.2,N/A,,Partly Cloudy,210,2012-10-19 19:35:00
3:55 PM,64.4,32.0,30,29.71,10.0,SW,13.8,21.9,N/A,,Partly Cloudy,230,2012-10-19 19:55:00
4:15 PM,64.4,33.8,32,29.71,10.0,SW,15.0,-,N/A,,Scattered Clouds,230,2012-10-19 20:15:00
4:35 PM,64.4,33.8,32,29.71,10.0,SW,19.6,24.2,N/A,,Partly Cloudy,230,2012-10-19 20:35:00
4:55 PM,62.6,33.8,34,29.72,10.0,SW,15.0,-,N/A,,Clear,220,2012-10-19 20:55:00
5:15 PM,62.6,33.8,34,29.71,10.0,SW,12.7,18.4,N/A,,Clear,220,2012-10-19 21:15:00
5:35 PM,62.6,33.8,34,29.72,10.0,SW,15.0,19.6,N/A,,Partly Cloudy,230,2012-10-19 21:35:00
5:55 PM,62.6,33.8,34,29.73,10.0,SW,10.4,-,N/A,,Clear,230,2012-10-19 21:55:00
6:15 PM,62.6,33.8,34,29.74,10.0,SW,10.4,-,N/A,,Scattered Clouds,220,2012-10-19 22:15:00
6:35 PM,60.8,35.6,39,29.74,10.0,WSW,6.9,-,N/A,,Unknown,240,2012-10-19 22:35:00
6:55 PM,60.8,35.6,39,29.74,10.0,WSW,5.8,-,N/A,,Unknown,240,2012-10-19 22:55:00
7:15 PM,59.0,37.4,45,29.75,10.0,WSW,3.5,-,N/A,,Unknown,240,2012-10-19 23:15:00
7:35 PM,59.0,35.6,42,29.76,10.0,Calm,Calm,-,N/A,,Unknown,0,2012-10-19 23:35:00
7:55 PM,57.2,37.4,48,29.77,10.0,WNW,9.2,-,N/A,,Unknown,290,2012-10-19 23:55:00
8:15 PM,57.2,35.6,44,29.78,10.0,NW,5.8,-,N/A,,Unknown,310,2012-10-20 00:15:00
8:35 PM,57.2,37.4,48,29.80,10.0,NW,8.1,-,N/A,,Unknown,320,2012-10-20 00:35:00
8:55 PM,55.4,37.4,51,29.80,10.0,WNW,8.1,-,N/A,,Unknown,300,2012-10-20 00:55:00
9:15 PM,55.4,37.4,51,29.81,10.0,Calm,Calm,-,N/A,,Unknown,0,2012-10-20 01:15:00
9:35 PM,53.6,37.4,54,29.81,10.0,WNW,3.5,-,N/A,,Unknown,290,2012-10-20 01:35:00
9:55 PM,53.6,37.4,54,29.82,10.0,Calm,Calm,-,N/A,,Unknown,0,2012-10-20 01:55:00
10:15 PM,53.6,37.4,54,29.82,10.0,WNW,3.5,-,N/A,,Unknown,300,2012-10-20 02:15:00
10:35 PM,53.6,37.4,54,29.81,10.0,Calm,Calm,-,N/A,,Unknown,0,2012-10-20 02:35:00
10:55 PM,53.6,37.4,54,29.81,10.0,Calm,Calm,-,N/A,,Unknown,0,2012-10-20 02:55:00
11:15 PM,53.6,39.2,58,29.81,10.0,Calm,Calm,-,N/A,,Unknown,0,2012-10-20 03:15:00
11:35 PM,53.6,37.4,54,29.81,10.0,Calm,Calm,-,N/A,,Unknown,0,2012-10-20 03:35:00
11:55 PM,50.0,39.2,66,29.82,10.0,Calm,Calm,-,N/A,,Unknown,0,2012-10-20 03:55:00